Home > Weather > Niagara Falls > Past weeks

Flag for Canada Weather for the Past 2 Weeks in Niagara Falls, Ontario, Canada

Now
31 °F

Overcast.


Feels Like: 23 °F
Forecast: 31 / 36 °F
Wind: 9 mph from Southwest

Location: Niagara Falls International Airport

Current Time: Feb 5, 2016 at 11:00:07 PM

Latest Report: Feb 5, 2016 at 9:53 PM


Visibility: 10 mi

Pressure: 30.34 "Hg

Humidity: 76%

Dew point: 24 °F

Location of Niagara FallsLocation

Historic Weather in Niagara Falls — Graph

°F

Niagara Falls Temperature Yesterday

Maximum temperature yesterday: 40 °F (at 12:53 PM)
Minimum temperature yesterday: 33 °F (at 10:53 PM)
Average temperature yesterday: 37 °F

High & Low Weather Summary for the Past Weeks

 TemperatureHumidityPressure
High60 °F (Feb 3, 1:53 PM)92% (Jan 22, 9:53 AM)30.40 "Hg (Jan 22, 9:53 AM)
Low7 °F (Jan 22, 5:53 AM)36% (Jan 25, 10:53 PM)29.49 "Hg (Jan 31, 11:53 PM)
Average34 °F70%29.98 "Hg
* Reported Jan 21 8:53 PM — Feb 5 8:53 PM, Niagara Falls, Weather by CustomWeather, © 2016

Note: Actual official high and low records may vary slightly from our data, if they occured in-between our weather recording intervals... More about our weather records

Advertising

Niagara Falls Weather History for the Previous 24 Hours

 ConditionsComfort  
Time TempWeatherWind HumidityBarometerVisibility
8:53 PM
Fri, Feb 5
31 °FOvercast.9 mph73%30.35 "Hg10 mi
7:53 PM31 °FPassing clouds.10 mph73%30.37 "Hg10 mi
6:53 PM31 °FPassing clouds.10 mph73%30.36 "Hg10 mi
5:53 PM31 °FPassing clouds.12 mph69%30.35 "Hg10 mi
5:03 PM33 °FLight snow. Partly sunny.16 mph63%30.30 "Hg10 mi
3:53 PM34 °FLight snow. Broken clouds.15 mph64%30.33 "Hg10 mi
2:53 PM33 °FLight snow. Mostly cloudy.6 mph75%30.33 "Hg7 mi
1:53 PM32 °FLight snow. Mostly cloudy.5 mph73%30.33 "Hg2 mi
12:53 PM32 °FLight snow. Broken clouds.No wind73%30.32 "Hg7 mi
12:00 PM31 °FLight snow. Broken clouds.No wind79%30.30 "Hg6 mi
11:04 AM32 °FLight snow. Cloudy.3 mph66%30.30 "Hg2 mi
10:53 AM32 °FLight snow. Broken clouds.5 mph69%30.34 "Hg2 mi
10:04 AM30 °FLight snow. Mostly cloudy.8 mph75%30.29 "Hg1 mi
9:53 AM31 °FLight snow. Mostly cloudy.9 mph73%30.33 "Hg1 mi
8:53 AM30 °FLight snow. Mostly cloudy.No wind82%30.33 "Hg7 mi
7:53 AM29 °FLight snow. Ice fog.No wind85%30.32 "Hg6 mi
6:53 AM30 °FLight snow. Ice fog.3 mph85%30.30 "Hg5 mi
6:04 AM30 °FLight snow. Ice fog.7 mph85%30.24 "Hg2 mi
5:52 AM30 °FLight snow. Ice fog.8 mph85%30.27 "Hg4 mi
4:53 AM30 °FLight snow. Ice fog.6 mph85%30.27 "Hg4 mi
3:53 AM31 °FLight snow. Overcast.6 mph79%30.25 "Hg6 mi
2:53 AM31 °FOvercast.7 mph79%30.24 "Hg10 mi
1:53 AM32 °FLight snow. Mostly cloudy.5 mph75%30.23 "Hg8 mi
12:53 AM33 °FLight snow. Overcast.3 mph75%30.23 "Hg7 mi
12:01 AM33 °FLight snow. Mostly cloudy.5 mph75%30.19 "Hg5 mi
Weather by CustomWeather, © 2016

See weather overviewHow to use our weather pages